TOURFACTS.DK  
Stats and Facts from Tour de France.

Tour de France 2019 starts in 348 days
  Riders   Stages   Teams   Summits   Yearly  


 
Search by year

After 2018 - Stage 14:
 15000 starters.
  5163 different riders.
  639 teams.
  2246 stages.
  456 restdays.
  441957.60 km.
  5678 abandonnees.


Top 3
GC
Christopher Froome86:20:55
Rigoberto Urán86:21:49
Romain Bardet86:23:15
Climb
Warren Barguil169 pt.
Primoz Roglic80 pt.
Thomas De Gendt64 pt.
Sprint
Michael Matthews359 pt.
André Greipel234 pt.
Edvald Boasson Hagen220 pt.
Youth
Simon Yates86:27:09
Louis Meintjes86:29:15
Emanuel Buchmann86:54:16
Facts from Tour de France 1990
  |   Stages.  |   Stage winners.  |   Days in yellow  |   Average speed.  |   Route.  |   Teams.  |   All riders.  |   Rookies.  |  

  |   Withdrawls.  |   GC.  |   Polka  |   Green  |   White  |   Summits. (In tour)  |   Miscellaneous.  |  

Stage 16 on July 17th. 1990
         Owning:    Claudio Chiappucci    
Pick a stage:  Pro 1 2 3 4 5 6 7 8 9 10 11 12 13 14 15 16 17 18 19 20 21
From: Blagnac    To: Luz-ArdidenDist:215.00 km.
Cat: 3Côte de MonlongFRAThierry Claveyrolat
10 points
 
Cat: 1Col d'AspinITAClaudio Chiappucci
30 points
 
Cat: HCol du TourmaletESPMiguel Angel Martinez
40 points
 
Cat: HLuz ArdidenESPMiguel Indurain
40 points
 

Average speed for all riders in stage:  29,094 km./hr.
    Place:Name:Team:Time:Km/h:
ESPMiguel IndurainESPBanesto07:04:38  +  00:00:00=30,379 
USAGreg LeMondFRAZ-Peugeot07:04:44  +  00:00:06=30,372 
ESPMarino LejarretaESPO.N.C.E.07:04:53  +  00:00:15=30,361 
4 ESPMiguel Angel MartinezESPO.N.C.E.07:05:37  +  00:00:59=30,309 
5 COLFabio Parra PintoESPKelme-Ibexpress07:05:56  +  00:01:18=30,286 
6 ITARoberto ContiITAAriostea07:06:02  +  00:01:24=30,279 
7 BELClaude CriquielionBELLotto-Superclub07:06:14  +  00:01:36=30,265 
8 ESPPedro DelgadoESPBanesto07:06:16  +  00:01:38=30,263 
9 FRAÉric BoyerFRAZ-Peugeot07:06:16  +  00:01:38=30,263 
10 FRAGilles DelionCHEHelvetia-La Suisse07:06:38  +  00:02:00=30,237 
11 ESPEduardo ChozasESPO.N.C.E.07:06:38  +  00:02:00=30,237 
12 FRAFabrice PhilipotFRACastorama-Raleigh07:06:38  +  00:02:00=30,237 
13 USAAndy HampstenUSA7-Eleven-Hoonved07:06:51  +  00:02:13=30,221 
14 ITAClaudio ChiappucciITACarrera Jeans-Vagabond07:07:03  +  00:02:25=30,207 
15 COLNelson RodriguezESPKelme-Ibexpress07:07:20  +  00:02:42=30,187 
16 BELJohan BruyneelBELLotto-Superclub07:07:59  +  00:03:21=30,141 
17 ESPAnselmo FuerteESPO.N.C.E.07:08:11  +  00:03:33=30,127 
18 COLWilliam PalacioCOLRyalcao-Postobon07:08:44  +  00:04:06=30,089 
19 COLCarlos JaramilloCOLRyalcao-Postobon07:08:44  +  00:04:06=30,089 
20 SUIGianni BugnoITAChateau d'Ax07:08:45  +  00:04:07=30,087 
21 FRAJerôme SimonFRAZ-Peugeot07:08:55  +  00:04:17=30,076 
22 NEDErik BreukinkNLDPDM-Concorde07:09:00  +  00:04:22=30,070 
23 COLAbelardo RondonESPBanesto07:09:41  +  00:05:03=30,022 
24 FRAThierry ClaveyrolatFRAR.M.O.-Mavic-Liberia07:09:47  +  00:05:09=30,015 
25 FRAPascal LinoFRAR.M.O.-Mavic-Liberia07:09:47  +  00:05:09=30,015 
26 ESPPello RuizESPO.N.C.E.07:09:51  +  00:05:13=30,010 
27 ESPRaúl AlcaláNLDPDM-Concorde07:10:02  +  00:05:24=29,998 
28 URSDimitri KonychevITAAlfa Lum07:10:23  +  00:05:45=29,973 
29 FRAPhilippe LouviotNLDToshiba07:11:08  +  00:06:30=29,921 
30 COLGerardo MoncadaCOLRyalcao-Postobon07:11:25  +  00:06:47=29,901 
31 BELMichel DerniesCHEWeinmann-La Suisse-S.M.M. Uste..07:11:50  +  00:07:12=29,873 
32 ESPVicente RidauraFRASeur07:12:29  +  00:07:51=29,828 
33 FRARonan PensecFRAZ-Peugeot07:13:17  +  00:08:39=29,773 
34 URSPiotr UgrumovITAAlfa Lum07:13:22  +  00:08:44=29,767 
35 COLReynel MontoyaCOLRyalcao-Postobon07:13:26  +  00:08:48=29,762 
36 BELPatrick RobeetCHEWeinmann-La Suisse-S.M.M. Uste..07:13:31  +  00:08:53=29,757 
37 SUIJörg MüllerNLDTVM07:13:53  +  00:09:15=29,731 
38 ESPJesus RodriguezESPBanesto07:13:53  +  00:09:15=29,731 
39 FRAGilbert Duclos-LassalleFRAZ-Peugeot07:14:19  +  00:09:41=29,702 
40 NORAtle KvålsvollFRAZ-Peugeot07:14:19  +  00:09:41=29,702 
41 COLJuan CastilloCOLRyalcao-Postobon07:15:35  +  00:10:57=29,615 
42 COLOscar VargasCOLRyalcao-Postobon07:15:36  +  00:10:58=29,614 
43 COLPablo HernandezCOLRyalcao-Postobon07:15:39  +  00:11:01=29,611 
44 FRABruno CornilletFRAZ-Peugeot07:16:13  +  00:11:35=29,572 
45 FRADenis RouxNLDToshiba07:18:03  +  00:13:25=29,449 
46 FRAJean-Claude BagotFRAR.M.O.-Mavic-Liberia07:18:35  +  00:13:57=29,413 
47 ITAAlessandro GiannelliITACarrera Jeans-Vagabond07:18:35  +  00:13:57=29,413 
48 NEDSteven RooksNLDPanasonic-Sportlife07:18:35  +  00:13:57=29,413 
49 BELRudy DhaenensNLDPDM-Concorde07:18:35  +  00:13:57=29,413 
50 IRLSean KellyNLDPDM-Concorde07:18:35  +  00:13:57=29,413 
51 ESPLuis LukinESPBanesto07:19:00  +  00:14:22=29,385 
52 ITAAlberto VolpiITAChateau d'Ax07:19:22  +  00:14:44=29,360 
53 SUIBeat BreuCHEWeinmann-La Suisse-S.M.M. Uste..07:19:22  +  00:14:44=29,360 
54 ITAAlberto ElliITAAriostea07:19:35  +  00:14:57=29,346 
55 ITARoberto GusmeroliITAChateau d'Ax07:20:14  +  00:15:36=29,303 
56 BELMarc SergeantNLDPanasonic-Sportlife07:20:46  +  00:16:08=29,267 
57 BELGuy NulensNLDPanasonic-Sportlife07:20:46  +  00:16:08=29,267 
58 FRADominique ArnaudESPBanesto07:20:46  +  00:16:08=29,267 
59 IRLStephen RocheBELHistor-Sigma07:20:46  +  00:16:08=29,267 
60 BELJos HaexBELLotto-Superclub07:20:46  +  00:16:08=29,267 
61 BELPaul HaghedoorenBELHistor-Sigma07:20:46  +  00:16:08=29,267 
62 NEDGerrit De VriesNLDBuckler07:20:46  +  00:16:08=29,267 
63 COLAlvaro MejiaCOLRyalcao-Postobon07:20:46  +  00:16:08=29,267 
64 FRAFrançois LemarchandFRAZ-Peugeot07:21:39  +  00:17:01=29,209 
65 AUSStephen HodgeESPO.N.C.E.07:21:50  +  00:17:12=29,197 
66 ITAMarcello SiboniITAAriostea07:22:05  +  00:17:27=29,180 
67 ENGPhil AndersonNLDTVM07:22:28  +  00:17:50=29,155 
68 CANSteve BauerUSA7-Eleven-Hoonved07:22:37  +  00:17:59=29,145 
69 NORDag Otto LauritzenUSA7-Eleven-Hoonved07:22:37  +  00:17:59=29,145 
70 ITAGiuseppe SaronniESPKelme-Ibexpress07:22:38  +  00:18:00=29,144 
71 DENTony RomingerITAChateau d'Ax07:22:54  +  00:18:16=29,126 
72 PORJosé FerreiraFRASeur07:26:03  +  00:21:25=28,921 
73 ESPJosé UreaFRASeur07:26:03  +  00:21:25=28,921 
74 ESPHerminio ZabalaESPO.N.C.E.07:26:03  +  00:21:25=28,921 
75 ESPJuan MartinezESPBanesto07:26:03  +  00:21:25=28,921 
76 COLNéstor MoraESPKelme-Ibexpress07:26:03  +  00:21:25=28,921 
77 ESPMarino MonjeESPBanesto07:26:03  +  00:21:25=28,921 
78 FRARoland Le ClercNLDToshiba07:26:16  +  00:21:38=28,906 
79 FRALuc LeblancFRACastorama-Raleigh07:26:40  +  00:22:02=28,881 
80 NEDAdri Van Der PoelCHEWeinmann-La Suisse-S.M.M. Uste..07:27:42  +  00:23:04=28,814 
81 ESPAntonio DiasESPKelme-Ibexpress07:28:07  +  00:23:29=28,787 
82 BELWilfried PeetersBELHistor-Sigma07:28:13  +  00:23:35=28,781 
83 DENSøren LilholtBELHistor-Sigma07:29:02  +  00:24:24=28,728 
84 FRAJean-Claude ColottiFRAR.M.O.-Mavic-Liberia07:29:02  +  00:24:24=28,728 
85 SUIMauro GianettiCHEHelvetia-La Suisse07:29:02  +  00:24:24=28,728 
86 DENBrian HolmBELHistor-Sigma07:29:02  +  00:24:24=28,728 
87 SUINiki RüttimannCHEHelvetia-La Suisse07:29:02  +  00:24:24=28,728 
88 FRAThierry LaurentFRAR.M.O.-Mavic-Liberia07:29:02  +  00:24:24=28,728 
89 SUIGuido WinterbergCHEHelvetia-La Suisse07:29:02  +  00:24:24=28,728 
90 NEDMaarten DucrotNLDTVM07:29:02  +  00:24:24=28,728 
91 URSAlexandre TrubineITAAlfa Lum07:29:02  +  00:24:24=28,728 
92 ITAValerio PivaITAAriostea07:29:02  +  00:24:24=28,728 
93 DDRUwe RaabNLDPDM-Concorde07:29:02  +  00:24:24=28,728 
94 DENBjarne RiisFRACastorama-Raleigh07:29:02  +  00:24:24=28,728 
95 FRAPascal LanceNLDToshiba07:29:02  +  00:24:24=28,728 
96 SUIHans-Rüdi MärkiCHEHelvetia-La Suisse07:29:02  +  00:24:24=28,728 
97 ESPMelchor MauriESPO.N.C.E.07:29:02  +  00:24:24=28,728 
98 COLWilliam PulidoCOLRyalcao-Postobon07:29:02  +  00:24:24=28,728 
99 DDRMario KummerITAChateau d'Ax07:29:02  +  00:24:24=28,728 
100 DDRJan SchurITAChateau d'Ax07:29:02  +  00:24:24=28,728 
101 NEDMartin SchalkersNLDTVM07:29:02  +  00:24:24=28,728 
102 URSVasily ZhdanovITAAlfa Lum07:29:02  +  00:24:24=28,728 
103 ESPPablo MorenoFRASeur07:29:02  +  00:24:24=28,728 
104 FRALaurent BiondiBELHistor-Sigma07:29:02  +  00:24:24=28,728 
105 USARonald KiefelUSA7-Eleven-Hoonved07:29:02  +  00:24:24=28,728 
106 GERAndreas KappesNLDToshiba07:29:02  +  00:24:24=28,728 
107 FRACharly MottetFRAR.M.O.-Mavic-Liberia07:29:02  +  00:24:24=28,728 
108 BELJan GoessensCHEWeinmann-La Suisse-S.M.M. Uste..07:29:02  +  00:24:24=28,728 
109 SUIThomas WegmüllerCHEWeinmann-La Suisse-S.M.M. Uste..07:29:02  +  00:24:24=28,728 
110 BELWillem Van EyndeBELLotto-Superclub07:29:02  +  00:24:24=28,728 
111 NEDFrans MaassenNLDBuckler07:29:02  +  00:24:24=28,728 
112 NEDToine PoelsNLDBuckler07:29:02  +  00:24:24=28,728 
113 FRAThierry MarieFRACastorama-Raleigh07:29:16  +  00:24:38=28,713 
114 FRAVincent BarteauFRACastorama-Raleigh07:29:16  +  00:24:38=28,713 
115 ESPAntonio EspejoESPKelme-Ibexpress07:29:33  +  00:24:55=28,695 
116 ITAMauro-Antonio SantaromitaITAChateau d'Ax07:29:45  +  00:25:07=28,683 
117 USAAndrew BishopUSA7-Eleven-Hoonved07:29:53  +  00:25:15=28,674 
118 NEDJos Van AertNLDPDM-Concorde07:29:53  +  00:25:15=28,674 
119 NEDGerrit SolleveldNLDBuckler07:30:04  +  00:25:26=28,662 
120 SUIErich MächlerITACarrera Jeans-Vagabond07:30:06  +  00:25:28=28,660 
121 PORAcacio da SilvaITACarrera Jeans-Vagabond07:30:06  +  00:25:28=28,660 
122 BELPeter De ClercqBELLotto-Superclub07:30:06  +  00:25:28=28,660 
123 BELPatrick VerschuerenBELLotto-Superclub07:30:06  +  00:25:28=28,660 
124 BELPeter RoesBELLotto-Superclub07:30:06  +  00:25:28=28,660 
125 BELJohan MuseeuwBELLotto-Superclub07:30:06  +  00:25:28=28,660 
126 NEDHenri MandersCHEHelvetia-La Suisse07:30:06  +  00:25:28=28,660 
127 USABob RollUSA7-Eleven-Hoonved07:31:24  +  00:26:46=28,578 
128 NEDEdwig Van HooydonckNLDBuckler07:31:24  +  00:26:46=28,578 
129 BELMichel VermoteFRAR.M.O.-Mavic-Liberia07:31:24  +  00:26:46=28,578 
130 FRAFrédéric BrunFRAR.M.O.-Mavic-Liberia07:31:56  +  00:27:18=28,544 
131 ITAMassimo GhirottoITACarrera Jeans-Vagabond07:32:26  +  00:27:48=28,512 
132 ITAGuido BontempiITACarrera Jeans-Vagabond07:32:26  +  00:27:48=28,512 
133 URSDjamolidine AbduzhaparovITAAlfa Lum07:32:26  +  00:27:48=28,512 
134 ITAGiancarlo PeriniITACarrera Jeans-Vagabond07:32:26  +  00:27:48=28,512 
135 ENGMaximilian SciandriITACarrera Jeans-Vagabond07:32:26  +  00:27:48=28,512 
136 BELCarlo BomansCHEWeinmann-La Suisse-S.M.M. Uste..07:32:26  +  00:27:48=28,512 
137 URSNikolai GolovatenkoITAAlfa Lum07:32:26  +  00:27:48=28,512 
138 NEDPatrick TolhoekNLDBuckler07:32:26  +  00:27:48=28,512 
139 NEDJan SiemonsNLDTVM07:32:56  +  00:28:18=28,481 
140 FRAJean-Claude LeclercqCHEHelvetia-La Suisse07:33:41  +  00:29:03=28,434 
141 NEDGert JakobsNLDPDM-Concorde07:33:41  +  00:29:03=28,434 
142 USADavis PhinneyUSA7-Eleven-Hoonved07:33:41  +  00:29:03=28,434 
143 SUIKurt SteinmannCHEWeinmann-La Suisse-S.M.M. Uste..07:33:41  +  00:29:03=28,434 
144 USANorman AlvisUSA7-Eleven-Hoonved07:33:41  +  00:29:03=28,434 
145 ENGSean YatesUSA7-Eleven-Hoonved07:33:41  +  00:29:03=28,434 
146 ITADavide CassaniITAAriostea07:33:47  +  00:29:09=28,428 
147 ITABruno CenghialtaITAAriostea07:34:07  +  00:29:29=28,407 
148 ITAAdriano BaffiITAAriostea07:34:09  +  00:29:31=28,405 
149 NEDJelle NijdamNLDBuckler07:34:12  +  00:29:34=28,402 
150 ESPJesús RosadoESPKelme-Ibexpress07:34:22  +  00:29:44=28,391 
151 NEDJean-Paul van PoppelNLDPanasonic-Sportlife07:34:25  +  00:29:47=28,388 
152 BELEric Van LanckerNLDPanasonic-Sportlife07:34:58  +  00:30:20=28,354 
153 DDROlaf LudwigNLDPanasonic-Sportlife07:34:58  +  00:30:20=28,354 
154 ITAFlavio GiupponiITACarrera Jeans-Vagabond07:34:58  +  00:30:20=28,354 
155 ITARodolfo MassiITAAriostea07:34:58  +  00:30:20=28,354 
156 FRAChristian ChaubetNLDToshiba07:35:09  +  00:30:31=28,342 
157 BELHendrik RedantBELLotto-Superclub07:35:55  +  00:31:17=28,295 
158 ITAGiovanni FidanzaITAChateau d'Ax07:36:11  +  00:31:33=28,278 
159 URSViatcheslav EkimovNLDPanasonic-Sportlife07:41:43  +  00:37:05=27,939 
160 FRALaurent PillonBELHistor-Sigma07:41:51  +  00:37:13=27,931 
161 FRAPascal SimonFRACastorama-Raleigh07:41:53  +  00:37:15=27,929 


Todays birthdays.

1877  Antoine Perrichon
1878  Auguste Berthault
1911  Théo Herckenrath
1924  Carlo Lafranchi
1931  Armand Di Caro
1937  Jean-Claude Lebaube
1951  Giovanni Battaglin
1961  Pascal Jules
1962  Jean-Claude Leclercq
1976  Janek Tombak
1978  Francisco Pérez
1983  Dries Devenyns




Visits: